Location: Star Hoppers Observatory
(42.7905°N, 83.6127°W)
Time: 11:27:05
(UTC-04:00)

Amateur Radio Satellites - All Passes

Search period start: 24 October 2014 10:57
Search period end: 25 October 2014 10:57
Location: Star Hoppers Observatory, 42.7905°N, 83.6127°W

Satellite Date Start Highest point End Downlink Frequencies (MHz)
Time Altitude Azimuth
FUNcube-1 24 Oct 11:28:18 11:32:16 36° 97° (E) 11:36:08 145.950 - 145.970 MHz USB
Oscar 11 24 Oct 11:31:47 11:36:07 82° 284° (WNW) 11:40:25 145.825 FM, Beacon 2401.500 USB
HO-68 24 Oct 11:33:33 11:40:29 53° 294° (WNW) 11:47:23 435.675 MHz FM
PCSat 24 Oct 11:41:44 11:42:51 11° 31° (NNE) 11:43:57 145.825 MHz
ZACube-1 24 Oct 12:19:31 12:23:44 58° 286° (WNW) 12:27:50 437.345 MHz
UKube-1 24 Oct 12:26:29 12:29:52 22° 295° (WNW) 12:33:15 145.840 MHz, 145.915 MHz
KITSAT 1 24 Oct 12:40:22 12:47:55 46° 111° (ESE) 12:55:30 435.175 FM
Sapphire 24 Oct 13:00:06 13:04:51 30° 48° (NE) 13:09:35 437.095 MHz 1200 baud AX-25 AFSK
FUNcube-1 24 Oct 13:05:16 13:08:24 20° 295° (WNW) 13:11:29 145.950 - 145.970 MHz USB
Oscar 19 24 Oct 13:06:21 13:10:10 21° 63° (ENE) 13:13:59 437.125 CW, 437.150 USB
ISS 24 Oct 13:10:49 13:13:29 22° 135° (SE) 13:16:09 145.800 FM
PCSat 24 Oct 13:22:30 13:27:43 45° 53° (NE) 13:32:54 145.825 MHz
AO-27 24 Oct 13:24:14 13:26:50 14° 58° (ENE) 13:29:25 436.795 MHz FM
HO-68 24 Oct 13:24:43 13:26:35 11° 314° (NW) 13:28:28 435.675 MHz FM
Oscar 10/S400 24 Oct 13:27:38 13:44:36 28° 150° (SSE) 14:01:03 145.825 - 145.975 CW/USB, Beacon 145.810 USB
Oscar 16 24 Oct 13:50:33 13:55:33 53° 71° (ENE) 14:00:34 437.025 USB, Beacon 2401.1428
AO-Echo 24 Oct 13:50:41 13:54:45 27° 65° (ENE) 13:58:57 ?
SO-50 24 Oct 14:07:48 14:12:17 85° 123° (ESE) 14:16:57 436.795 FM
Uribyol 2 24 Oct 14:09:35 14:14:18 35° 67° (ENE) 14:19:02 436.500 FM
JAS-1B 24 Oct 14:11:24 14:17:19 67° 72° (ENE) 14:22:56 435.800 - 435.900 CW/SSB
ITAMSAT 1 24 Oct 14:15:26 14:20:11 38° 68° (ENE) 14:24:59 435.822 SSB
Gurwin Techsat 1B 24 Oct 14:32:48 14:37:19 29° 66° (ENE) 14:41:51 435.225 FM
KITSAT 1 24 Oct 14:35:38 14:43:20 46° 312° (NW) 14:51:05 435.175 FM
Sapphire 24 Oct 14:43:17 14:48:27 46° 247° (WSW) 14:53:36 437.095 MHz 1200 baud AX-25 AFSK
Oscar 19 24 Oct 14:44:08 14:49:08 52° 260° (W) 14:54:10 437.125 CW, 437.150 USB
TMSAT-1 24 Oct 14:44:27 14:48:53 28° 65° (ENE) 14:53:20 436.925 FM
ISS 24 Oct 14:46:43 14:49:58 50° 332° (NNW) 14:53:14 145.800 FM
AO-27 24 Oct 15:00:23 15:05:36 85° 256° (WSW) 15:10:52 436.795 MHz FM
PCSat 24 Oct 15:06:22 15:10:53 28° 251° (WSW) 15:15:24 145.825 MHz
AO-7 24 Oct 15:26:57 15:33:52 31° 56° (NE) 15:40:48 29.400 - 29.500 MHz
Saudisat 1A 24 Oct 15:27:25 15:29:16 12° 34° (NE) 15:31:06 436.775 MHz
AO-Echo 24 Oct 15:28:50 15:33:20 37° 263° (W) 15:38:01 ?
Oscar 16 24 Oct 15:31:33 15:35:13 19° 268° (W) 15:38:53 437.025 USB, Beacon 2401.1428
UOSAT-12 24 Oct 15:33:52 15:38:25 60° 120° (ESE) 15:43:04 437.025 FM, 437.400 FM
Uosat F 24 Oct 15:37:18 15:39:39 13° 58° (ENE) 15:42:00 435.120 FM
Uribyol 2 24 Oct 15:49:14 15:53:47 30° 264° (W) 15:58:22 436.500 FM
SO-50 24 Oct 15:50:32 15:53:30 17° 323° (NW) 15:56:31 436.795 FM
ITAMSAT 1 24 Oct 15:55:17 15:59:44 28° 265° (W) 16:04:13 435.822 SSB
JAS-1B 24 Oct 16:05:06 16:08:33 16° 269° (W) 16:11:56 435.800 - 435.900 CW/SSB
Gurwin Techsat 1B 24 Oct 16:12:14 16:17:08 38° 263° (W) 16:22:05 435.225 FM
JAS-2 24 Oct 16:22:05 16:24:46 13° 50° (NE) 16:27:34 435.800 - 435.900 CW/SSB, 435.910 FM
TMSAT-1 24 Oct 16:23:39 16:28:37 40° 262° (W) 16:33:36 436.925 FM
ISS 24 Oct 16:24:44 16:27:14 19° 351° (N) 16:29:44 145.800 FM
KITSAT 1 24 Oct 16:36:10 16:41:06 17° 338° (NNW) 16:46:03 435.175 FM
AO-27 24 Oct 16:45:22 16:45:52 10° 273° (W) 16:46:22 436.795 MHz FM
Saudisat 1A 24 Oct 17:05:16 17:09:41 66° 54° (NE) 17:14:04 436.775 MHz
Uosat F 24 Oct 17:12:41 17:17:43 85° 256° (WSW) 17:22:47 435.120 FM
UOSAT-12 24 Oct 17:15:18 17:18:57 22° 319° (NW) 17:22:38 437.025 FM, 437.400 FM
AO-7 24 Oct 17:17:53 17:26:05 66° 255° (WSW) 17:34:21 29.400 - 29.500 MHz
ISS 24 Oct 18:02:10 18:04:47 21° 12° (NNE) 18:07:24 145.800 FM
JAS-2 24 Oct 18:02:30 18:08:22 69° 72° (ENE) 18:15:06 435.800 - 435.900 CW/SSB, 435.910 FM
KITSAT 1 24 Oct 18:36:52 18:40:36 14° 10° (N) 18:44:20 435.175 FM
Hamsat 24 Oct 18:37:13 18:41:26 86° 257° (WSW) 18:45:38 145.90 MHz
Saudisat 1A 24 Oct 18:46:25 18:48:43 14° 251° (WSW) 18:51:00 436.775 MHz
OPAL 24 Oct 18:52:25 18:57:23 67° 104° (ESE) 19:02:17 ?
STRAND 1 24 Oct 19:01:05 19:01:39 10° 87° (E) 19:02:12 ?
AO-7 24 Oct 19:17:55 19:20:24 12° 274° (W) 19:22:53 29.400 - 29.500 MHz
ISS 24 Oct 19:38:37 19:41:57 65° 31° (NNE) 19:45:16 145.800 FM
JAS-2 24 Oct 19:50:04 19:54:14 19° 273° (W) 19:58:45 435.800 - 435.900 CW/SSB, 435.910 FM
SO-67 24 Oct 20:02:04 20:05:28 66° 259° (W) 20:08:54 435.3500 MHz FM
HO-68 24 Oct 20:16:23 20:22:09 27° 58° (ENE) 20:27:55 435.675 MHz FM
KITSAT 1 24 Oct 20:32:18 20:39:14 30° 39° (NE) 20:46:06 435.175 FM
OPAL 24 Oct 20:32:39 20:35:44 17° 302° (WNW) 20:38:47 ?
STRAND 1 24 Oct 20:36:22 20:41:34 87° 105° (ESE) 20:46:42 ?
SO-50 24 Oct 20:59:00 21:02:14 18° 38° (NE) 21:05:30 436.795 FM
ISS 24 Oct 21:16:07 21:18:19 17° 228° (SW) 21:20:30 145.800 FM
AO-40 24 Oct 21:18:51 23:30:13 29° 210° (SSW) 03:43:55 Beacon 2401.320
RS-15 24 Oct 21:40:48 21:49:13 26° 103° (ESE) 21:57:32 29.354 - 29.394 USB, Beacon 29.352 USB
ZACube-1 24 Oct 21:42:29 21:44:48 14° 62° (ENE) 21:47:05 437.345 MHz
UKube-1 24 Oct 21:46:02 21:49:59 35° 69° (ENE) 21:53:58 145.840 MHz, 145.915 MHz
HO-68 24 Oct 22:02:13 22:09:18 65° 257° (WSW) 22:16:28 435.675 MHz FM
STRAND 1 24 Oct 22:17:35 22:20:00 13° 302° (WNW) 22:22:25 ?
UOSAT-12 24 Oct 22:24:07 22:26:22 13° 33° (NNE) 22:28:37 437.025 FM, 437.400 FM
FUNcube-1 24 Oct 22:25:04 22:29:14 35° 70° (ENE) 22:33:20 145.950 - 145.970 MHz USB
Oscar 11 24 Oct 22:27:16 22:31:36 85° 77° (ENE) 22:35:57 145.825 FM, Beacon 2401.500 USB
KITSAT 1 24 Oct 22:27:24 22:35:30 80° 241° (WSW) 22:43:33 435.175 FM
SO-50 24 Oct 22:38:34 22:43:26 87° 237° (WSW) 22:48:20 436.795 FM
ZACube-1 24 Oct 23:16:04 23:20:39 68° 259° (WSW) 23:25:11 437.345 MHz
UKube-1 24 Oct 23:22:52 23:26:15 22° 266° (W) 23:29:39 145.840 MHz, 145.915 MHz
RS-15 24 Oct 23:49:13 00:00:14 83° 304° (NW) 00:11:15 29.354 - 29.394 USB, Beacon 29.352 USB
FUNcube-1 25 Oct 00:01:58 00:05:39 24° 266° (W) 00:09:19 145.950 - 145.970 MHz USB
UOSAT-12 25 Oct 00:02:45 00:07:28 64° 53° (NE) 00:12:05 437.025 FM, 437.400 FM
SO-50 25 Oct 00:21:58 00:23:16 11° 253° (WSW) 00:24:34 436.795 FM
KITSAT 1 25 Oct 00:25:10 00:29:37 16° 260° (W) 00:34:05 435.175 FM
MaSat-1 25 Oct 00:51:49 00:55:57 77° 297° (WNW) 00:59:41 437.345 MHz
UOSAT-12 25 Oct 01:44:15 01:47:05 16° 251° (WSW) 01:49:53 437.025 FM, 437.400 FM
JAS-1B 25 Oct 01:53:47 01:58:22 18° 92° (E) 02:03:25 435.800 - 435.900 CW/SSB
Oscar 16 25 Oct 02:02:33 02:05:54 17° 91° (E) 02:09:13 437.025 USB, Beacon 2401.1428
RS-15 25 Oct 02:05:02 02:14:26 32° 332° (NNW) 02:23:57 29.354 - 29.394 USB, Beacon 29.352 USB
Uribyol 2 25 Oct 02:23:59 02:25:21 11° 88° (E) 02:26:43 436.500 FM
ITAMSAT 1 25 Oct 02:29:33 02:31:28 12° 88° (E) 02:33:23 435.822 SSB
Oscar 10/S400 25 Oct 02:34:34 03:22:35 15° 246° (WSW) 04:50:31 145.825 - 145.975 CW/USB, Beacon 145.810 USB
Oscar 19 25 Oct 02:54:46 02:59:47 52° 100° (E) 03:04:45 437.125 CW, 437.150 USB
AO-27 25 Oct 03:13:00 03:17:41 32° 96° (E) 03:22:20 436.795 MHz FM
AO-Echo 25 Oct 03:34:27 03:39:46 68° 102° (ESE) 03:45:03 ?
Oscar 16 25 Oct 03:40:36 03:45:38 59° 288° (WNW) 03:50:38 437.025 USB, Beacon 2401.1428
JAS-1B 25 Oct 03:42:47 03:49:25 82° 286° (WNW) 03:57:22 435.800 - 435.900 CW/SSB
Sapphire 25 Oct 03:44:01 03:47:53 20° 106° (ESE) 03:51:46 437.095 MHz 1200 baud AX-25 AFSK
Uribyol 2 25 Oct 04:00:17 04:05:32 89° 284° (WNW) 04:10:44 436.500 FM
PCSat 25 Oct 04:05:22 04:10:11 34° 110° (ESE) 04:15:02 145.825 MHz
ITAMSAT 1 25 Oct 04:06:21 04:11:37 85° 285° (WNW) 04:16:50 435.822 SSB
RS-15 25 Oct 04:23:16 04:31:34 23° 8° (N) 04:40:01 29.354 - 29.394 USB, Beacon 29.352 USB
Gurwin Techsat 1B 25 Oct 04:27:04 04:32:25 82° 104° (ESE) 04:37:44 435.225 FM
OPAL 25 Oct 04:31:24 04:34:52 19° 59° (ENE) 04:38:19 ?
Oscar 19 25 Oct 04:35:00 04:38:44 21° 297° (WNW) 04:42:28 437.125 CW, 437.150 USB
TMSAT-1 25 Oct 04:38:11 04:43:32 77° 103° (ESE) 04:48:49 436.925 FM
AO-27 25 Oct 04:52:30 04:57:10 33° 293° (WNW) 05:01:47 436.795 MHz FM
JAS-2 25 Oct 05:13:44 05:16:14 12° 82° (E) 05:18:43 435.800 - 435.900 CW/SSB, 435.910 FM
AO-Echo 25 Oct 05:14:30 05:17:58 18° 299° (WNW) 05:21:27 ?
AO-7 25 Oct 05:18:34 05:26:20 41° 99° (E) 05:34:04 29.400 - 29.500 MHz
Uosat F 25 Oct 05:20:04 05:24:24 28° 95° (E) 05:28:41 435.120 FM
Sapphire 25 Oct 05:25:29 05:30:49 59° 304° (NW) 05:36:12 437.095 MHz 1200 baud AX-25 AFSK
JAS-1B 25 Oct 05:35:37 05:39:20 16° 303° (WNW) 05:43:22 435.800 - 435.900 CW/SSB
Uribyol 2 25 Oct 05:41:55 05:44:14 13° 303° (WNW) 05:46:32 436.500 FM
ITAMSAT 1 25 Oct 05:48:14 05:50:17 12° 303° (WNW) 05:52:20 435.822 SSB
PCSat 25 Oct 05:48:30 05:53:32 38° 309° (NW) 05:58:35 145.825 MHz
OPAL 25 Oct 06:08:10 06:13:16 63° 256° (WSW) 06:18:21 ?
Gurwin Techsat 1B 25 Oct 06:08:48 06:11:41 15° 301° (WNW) 06:14:34 435.225 FM
STRAND 1 25 Oct 06:16:06 06:19:33 19° 61° (ENE) 06:23:02 ?
TMSAT-1 25 Oct 06:19:44 06:22:47 16° 301° (WNW) 06:25:51 436.925 FM
Hamsat 25 Oct 06:23:12 06:25:45 16° 91° (E) 06:28:19 145.90 MHz
RS-15 25 Oct 06:37:17 06:47:48 45° 40° (NE) 06:58:40 29.354 - 29.394 USB, Beacon 29.352 USB
JAS-2 25 Oct 06:54:49 07:02:34 64° 101° (E) 07:10:17 435.800 - 435.900 CW/SSB, 435.910 FM
Uosat F 25 Oct 06:58:37 07:03:13 36° 292° (WNW) 07:07:47 435.120 FM
AO-7 25 Oct 07:11:21 07:19:11 48° 298° (WNW) 07:27:01 29.400 - 29.500 MHz
Sapphire 25 Oct 07:12:58 07:15:26 13° 325° (NW) 07:17:54 437.095 MHz 1200 baud AX-25 AFSK
Saudisat 1A 25 Oct 07:14:38 07:16:47 14° 109° (ESE) 07:18:57 436.775 MHz
STRAND 1 25 Oct 07:53:12 07:58:15 61° 259° (WSW) 08:03:22 ?
Hamsat 25 Oct 07:57:55 08:01:56 45° 288° (WNW) 08:05:57 145.90 MHz
JAS-2 25 Oct 08:40:31 08:47:03 31° 298° (WNW) 08:53:39 435.800 - 435.900 CW/SSB, 435.910 FM
RS-15 25 Oct 08:49:47 09:00:45 65° 244° (WSW) 09:12:12 29.354 - 29.394 USB, Beacon 29.352 USB
Saudisat 1A 25 Oct 08:51:26 08:55:48 67° 306° (NW) 09:00:12 436.775 MHz
SO-67 25 Oct 08:57:19 09:00:44 61° 284° (WNW) 09:04:08 435.3500 MHz FM
MaSat-1 25 Oct 09:02:56 09:04:08 12° 51° (NE) 09:05:19 437.345 MHz
AO-7 25 Oct 09:07:24 09:09:56 12° 320° (NW) 09:12:29 29.400 - 29.500 MHz
HO-68 25 Oct 09:29:51 09:35:26 24° 92° (E) 09:40:59 435.675 MHz FM
Oscar 11 25 Oct 10:15:32 10:17:56 15° 91° (E) 10:20:18 145.825 FM, Beacon 2401.500 USB
Saudisat 1A 25 Oct 10:34:21 10:36:13 12° 326° (NW) 10:38:05 436.775 MHz
MaSat-1 25 Oct 10:37:48 10:39:46 20° 252° (WSW) 10:41:38 437.345 MHz
